#timestamp,LO_Frequency,Hit,StdDev 
1602047555.2,286046992.3,P
1602047575.0,286046994.6,P
1602047575.9,286046994.6,P
1602047595.7,286046994.6,Y
1602047615.6,286047000.1,P
1602047635.4,286047002.3,N
1602047655.3,286047001.9,N
1602047675.1,286047004.4,N
1602047676.0,286047004.4,N
1602047695.8,286047002.0,N
1602047715.7,286047005.3,N
1602047735.5,286047006.5,N
1602047755.4,286047009.2,N
1602047775.2,286047007.9,N
1602047795.0,286047008.1,N
1602047795.9,286047008.1,N
1602047815.8,286047008.8,N
1602047835.6,286047005.2,N
1602047855.4,286047005.6,N
1602047875.3,286047004.1,N
1602047895.1,286047001.3,N
1602047915.9,286047002.0,N
1602047935.7,286047001.3,N
1602047955.5,286047003.8,N
1602047975.4,286047005.4,N
1602047995.2,286047007.6,N
1602048015.1,286047009.2,N
1602048016.0,286047009.2,N
1602048035.8,286047007.7,N
1602048055.6,286047007.7,N
1602048075.5,286047006.1,N
1602048095.3,286047007.0,N
1602048115.1,286047005.3,N
1602048135.9,286047004.9,N
1602048155.7,286047006.3,N
1602048175.6,286047009.0,Y
1602048195.4,286047001.3,P
1602048215.2,286047003.8,N
1602048235.1,286047003.9,N
1602048236.0,286047003.9,N
1602048255.8,286047004.4,Y
1602048275.7,286047000.7,P
1602048295.5,286047000.7,N
1602048315.3,286047002.8,N
1602048335.2,286047001.9,N
1602048355.0,286047004.4,Y
1602048355.9,286047004.4,P
1602048375.8,286047000.5,N
1602048395.6,286047001.2,N
1602048415.4,286046998.5,N
1602048435.3,286047001.2,N
1602048455.1,286047001.0,N
1602048475.8,286047000.1,N
1602048495.7,286046999.8,N
1602048515.5,286047000.3,N
1602048535.4,286047002.6,N
1602048555.2,286047004.4,N
1602048575.0,286047001.4,N
1602048575.9,286047001.4,N
1602048595.8,286047001.6,N
1602048615.6,286047002.6,N
1602048635.5,286046999.7,N
1602048655.3,286047000.0,N
1602048675.1,286047000.3,N
1602048695.9,286047002.5,N
1602048715.7,286046999.8,N
1602048735.5,286046998.8,N
1602048755.4,286046999.3,N
1602048775.2,286046998.4,N
1602048795.1,286046997.1,N
1602048796.0,286046997.1,N
1602048815.8,286046993.4,Y
1602048835.6,286046994.0,P
1602048855.5,286046993.8,N
1602048875.3,286046994.1,N
1602048895.2,286046991.8,N
1602048915.9,286046993.0,N
1602048935.7,286046992.7,N
1602048955.6,286046990.9,Y
1602048975.4,286046996.1,P
1602048995.3,286046997.6,N
1602049015.1,286046996.6,N
1602049035.8,286046999.4,N
1602049055.7,286046996.6,N
1602049075.5,286046997.2,N
1602049095.4,286046997.2,N
1602049115.2,286046999.6,N
1602049135.0,286047000.1,N
1602049135.9,286047000.1,N
1602049155.8,286047000.0,N
1602049175.6,286047002.8,N
1602049195.4,286047000.5,N
1602049215.3,286047004.1,N
1602049235.1,286047003.2,N
1602049255.9,286047001.8,N
1602049275.7,286047003.1,N
1602049295.5,286047003.0,N
1602049315.4,286047006.0,N
1602049335.2,286047003.2,N
1602049355.1,286047004.2,N
1602049356.0,286047004.2,N
1602049375.8,286047003.1,N
1602049395.6,286047003.3,N
1602049415.5,286047005.6,N
1602049435.3,286047007.2,N
1602049455.2,286047004.5,N
1602049475.9,286047004.8,N
1602049495.7,286047006.6,N
1602049515.6,286047007.1,N
1602049535.4,286047004.6,N
1602049555.2,286047007.4,N
1602049575.1,286047003.1,N
1602049576.0,286047003.1,N
1602049595.8,286047002.2,N
1602049615.7,286046999.9,N
1602049635.5,286046999.9,N
1602049655.3,286047011.9,Y
1602049675.2,286046995.8,P
1602049695.0,286046994.7,N
1602049695.9,286046994.7,N
1602049715.8,286046993.5,N
1602049735.6,286046996.2,N
1602049755.4,286046995.2,N
1602049775.3,286046994.0,N
1602049795.1,286046993.5,N
1602049815.8,286046996.4,N
1602049835.7,286046997.9,N
1602049855.5,286046997.7,N
1602049875.4,286046997.6,N
1602049895.2,286046996.5,N
1602049915.0,286046998.7,N
1602049915.9,286046998.7,N
1602049935.8,286046997.2,N
1602049955.6,286046997.0,N
1602049975.4,286046998.6,N
1602049995.3,286046999.2,N
1602050015.1,286047001.1,N
1602050035.9,286046998.8,N
1602050055.7,286046998.9,N
1602050075.5,286046998.1,N
1602050095.4,286046998.3,N
1602050115.2,286046998.8,N
1602050135.0,286047001.2,N
1602050135.9,286047001.2,N
1602050155.8,286047000.3,N
1602050175.6,286047001.2,N
1602050195.5,286046999.8,N
1602050215.3,286047001.2,N
1602050235.1,286046998.8,N
1602050255.9,286046998.6,N
1602050275